Weather History for Richmond, KY

Change the Weather History Date:

Thursday, February 14, 2013

  Actual Average (KLOZ) Record (KLOZ)
Temperature  
Mean Temperature 42 °F 39 °F  
Max Temperature 55 °F 49 °F 70 °F (1959)
Min Temperature 30 °F 29 °F 3 °F (1960)
Degree Days  
Heating Degree Days 22 26  
Month to date heating degree days 379  
Since 1 July heating degree days 2942  
Cooling Degree Days 0 0  
Month to date cooling degree days 0  
Year to date cooling degree days 0  
Moisture  
Dew Point 32 °F    
Average Humidity 71    
Maximum Humidity 100    
Minimum Humidity 41    
Precipitation  
Precipitation 0.00 in 0.14 in 1.45 in (1970)
Month to date precipitation 1.82  
Year to date precipitation 5.36  
Sea Level Pressure  
Sea Level Pressure 29.95 in    
Wind  
Wind Speed 9 mph (SW)    
Max Wind Speed 20 mph    
Max Gust Speed 28 mph    
Visibility 10 miles    
Events      
T = Trace of Precipitation, MM = Missing Value Source: NWS Daily Summary

Daily Weather History Graph

Daily Weather History Graph

Search for Another Location

Airport:

Trip Planner

Search our weather history database for the weather conditions in past years. The results will help you decide how hot, cold, wet, or windy it might be!

Date:

Astronomy

Feb. 14, 2013 Rise Set
Actual Time 7:27 AM EST 6:15 PM EST
Civil Twilight 7:00 AM EST 6:42 PM EST
Nautical Twilight 6:30 AM EST 7:13 PM EST
Astronomical Twilight 5:59 AM EST 7:43 PM EST
Moon 9:35 AM EST (2/14) 11:10 PM EST (2/14)
Length of Visible Light 11h 41m
Length of Day
10h 48m
Waxing Crescent, 21% of the Moon is Illuminated
Feb 14
Waxing Crescent
Feb 17
First Quarter
Feb 25
Full
Mar 4
Last Quarter
Mar 11
New

Hourly Weather History & Observations

Time (EST) Temp. Windchill Dew Point Humidity Pressure Visibility Wind Dir Wind Speed Gust Speed Precip Events Conditions
12:15 AM 30.2 °F 24.3 °F 28.4 °F 93% 29.96 in 10.0 mi SSW 5.8 mph - N/A   Clear
12:35 AM 30.2 °F 23.4 °F 28.4 °F 93% 29.96 in 10.0 mi SSW 6.9 mph - N/A   Clear
12:55 AM 30.2 °F 22.6 °F 30.2 °F 100% 29.96 in 10.0 mi SW 8.1 mph - N/A   Clear
1:15 AM 32.0 °F 25.6 °F 30.2 °F 93% 29.96 in 10.0 mi SSW 6.9 mph - N/A   Clear
1:35 AM 32.0 °F 26.4 °F 30.2 °F 93% 29.97 in 10.0 mi SSW 5.8 mph - N/A   Clear
1:55 AM 32.0 °F 26.4 °F 30.2 °F 93% 29.96 in 10.0 mi South 5.8 mph - N/A   Clear
2:15 AM 30.2 °F 23.4 °F 30.2 °F 100% 29.96 in 7.0 mi SSW 6.9 mph - N/A   Clear
2:35 AM 30.2 °F 23.4 °F 30.2 °F 100% 29.96 in 7.0 mi South 6.9 mph - N/A   Clear
2:55 AM 32.0 °F 24.8 °F 30.2 °F 93% 29.96 in 7.0 mi South 8.1 mph - N/A   Clear
3:15 AM 32.0 °F 25.6 °F 30.2 °F 93% 29.96 in 7.0 mi SSW 6.9 mph - N/A   Clear
3:35 AM 32.0 °F 24.8 °F 30.2 °F 93% 29.96 in 7.0 mi SSW 8.1 mph - N/A   Clear
3:55 AM 32.0 °F 24.2 °F 30.2 °F 93% 29.96 in 10.0 mi South 9.2 mph - N/A   Clear
4:15 AM 32.0 °F 24.8 °F 30.2 °F 93% 29.96 in 10.0 mi South 8.1 mph - N/A   Clear
4:35 AM 32.0 °F 24.8 °F 30.2 °F 93% 29.96 in 10.0 mi South 8.1 mph - N/A   Clear
4:55 AM 32.0 °F 24.2 °F 30.2 °F 93% 29.96 in 10.0 mi South 9.2 mph - N/A   Clear
5:15 AM 32.0 °F 24.8 °F 30.2 °F 93% 29.96 in 10.0 mi South 8.1 mph - N/A   Clear
5:35 AM 32.0 °F 24.2 °F 30.2 °F 93% 29.96 in 10.0 mi South 9.2 mph - N/A   Mostly Cloudy
5:55 AM 32.0 °F 24.8 °F 30.2 °F 93% 29.96 in 10.0 mi SSW 8.1 mph - N/A   Overcast
6:15 AM 32.0 °F 23.0 °F 30.2 °F 93% 29.96 in 10.0 mi SSW 11.5 mph - N/A   Mostly Cloudy
6:35 AM 32.0 °F 24.2 °F 30.2 °F 93% 29.96 in 10.0 mi SSW 9.2 mph - N/A   Clear
6:55 AM 32.0 °F 23.6 °F 30.2 °F 93% 29.96 in 10.0 mi SSW 10.4 mph - N/A   Scattered Clouds
7:15 AM 32.0 °F 23.6 °F 30.2 °F 93% 29.96 in 10.0 mi South 10.4 mph - N/A   Scattered Clouds
7:35 AM 33.8 °F 24.8 °F 30.2 °F 87% 29.95 in 10.0 mi South 12.7 mph - N/A   Clear
7:55 AM 33.8 °F 26.4 °F 30.2 °F 87% 29.95 in 10.0 mi South 9.2 mph - N/A   Clear
8:15 AM 33.8 °F 26.4 °F 30.2 °F 87% 29.96 in 10.0 mi SSW 9.2 mph - N/A   Scattered Clouds
8:35 AM 33.8 °F 25.8 °F 32.0 °F 93% 29.96 in 10.0 mi SSW 10.4 mph - N/A   Mostly Cloudy
8:55 AM 35.6 °F 28.0 °F 32.0 °F 87% 29.96 in 10.0 mi South 10.4 mph - N/A   Scattered Clouds
9:15 AM 37.4 °F 30.3 °F 32.0 °F 81% 29.97 in 10.0 mi SSW 10.4 mph - N/A   Clear
9:35 AM 37.4 °F 30.3 °F 33.8 °F 87% 29.97 in 10.0 mi SSW 10.4 mph - N/A   Scattered Clouds
9:55 AM 39.2 °F 31.6 °F 33.8 °F 81% 29.98 in 10.0 mi SSW 12.7 mph 19.6 mph N/A   Overcast
10:15 AM 39.2 °F 30.2 °F 33.8 °F 81% 29.98 in 10.0 mi SW 17.3 mph - N/A   Overcast
10:35 AM 39.2 °F 30.8 °F 33.8 °F 81% 29.98 in 10.0 mi SSW 15.0 mph 18.4 mph N/A   Overcast
11:15 AM 41.0 °F 33.1 °F 35.6 °F 81% 29.98 in 10.0 mi SSW 15.0 mph 18.4 mph N/A   Mostly Cloudy
11:35 AM 42.8 °F 35.4 °F 35.6 °F 76% 29.97 in 10.0 mi SSW 15.0 mph 20.7 mph N/A   Scattered Clouds
11:55 AM 44.6 °F 39.2 °F 35.6 °F 71% 29.96 in 10.0 mi SSW 10.4 mph 18.4 mph N/A   Clear
12:15 PM 46.4 °F 40.1 °F 35.6 °F 66% 29.96 in 10.0 mi SSW 15.0 mph - N/A   Clear
12:35 PM 48.2 °F - 35.6 °F 62% 29.95 in 10.0 mi SSW 12.7 mph 18.4 mph N/A   Scattered Clouds
12:55 PM 48.2 °F - 33.8 °F 58% 29.94 in 10.0 mi SW 13.8 mph 21.9 mph N/A   Clear
1:15 PM 50.0 °F - 33.8 °F 54% 29.93 in 10.0 mi SW 17.3 mph 25.3 mph N/A   Scattered Clouds
1:35 PM 51.8 °F - 33.8 °F 50% 29.93 in 10.0 mi SW 19.6 mph 26.5 mph N/A   Scattered Clouds
1:55 PM 51.8 °F - 33.8 °F 50% 29.92 in 10.0 mi WSW 16.1 mph 20.7 mph N/A   Scattered Clouds
2:15 PM 51.8 °F - 32.0 °F 47% 29.91 in 10.0 mi SW 15.0 mph 27.6 mph N/A   Scattered Clouds
2:35 PM 53.6 °F - 32.0 °F 44% 29.91 in 10.0 mi WSW 16.1 mph 24.2 mph N/A   Clear
3:15 PM 53.6 °F - 32.0 °F 44% 29.90 in 10.0 mi SW 12.7 mph 24.2 mph N/A   Clear
3:35 PM 53.6 °F - 32.0 °F 44% 29.90 in 10.0 mi WSW 13.8 mph 21.9 mph N/A   Scattered Clouds
3:55 PM 53.6 °F - 32.0 °F 44% 29.90 in 10.0 mi WSW 17.3 mph 24.2 mph N/A   Scattered Clouds
4:15 PM 53.6 °F - 32.0 °F 44% 29.91 in 10.0 mi WSW 17.3 mph 23.0 mph N/A   Clear
4:35 PM 55.4 °F - 32.0 °F 41% 29.91 in 10.0 mi WSW 12.7 mph 19.6 mph N/A   Clear
4:55 PM 53.6 °F - 32.0 °F 44% 29.92 in 10.0 mi SW 11.5 mph - N/A   Scattered Clouds
5:15 PM 53.6 °F - 30.2 °F 41% 29.92 in 10.0 mi WSW 16.1 mph 20.7 mph N/A   Scattered Clouds
5:35 PM 53.6 °F - 30.2 °F 41% 29.93 in 10.0 mi WSW 12.7 mph - N/A   Scattered Clouds
5:55 PM 51.8 °F - 30.2 °F 44% 29.93 in 10.0 mi WSW 8.1 mph - N/A   Clear
6:15 PM 51.8 °F - 30.2 °F 44% 29.94 in 10.0 mi WSW 6.9 mph - N/A   Clear
6:35 PM 50.0 °F - 30.2 °F 47% 29.94 in 10.0 mi SW 9.2 mph - N/A   Scattered Clouds
6:55 PM 48.2 °F - 32.0 °F 54% 29.95 in 10.0 mi SW 6.9 mph - N/A   Scattered Clouds
7:15 PM 48.2 °F - 32.0 °F 54% 29.96 in 10.0 mi SW 8.1 mph - N/A   Clear
7:35 PM 48.2 °F - 32.0 °F 54% 29.96 in 10.0 mi SW 6.9 mph - N/A   Scattered Clouds
7:55 PM 48.2 °F - 32.0 °F 54% 29.96 in 10.0 mi SSW 6.9 mph - N/A   Scattered Clouds
8:15 PM 48.2 °F - 32.0 °F 54% 29.96 in 10.0 mi SSW 5.8 mph - N/A   Mostly Cloudy
8:35 PM 46.4 °F 42.9 °F 32.0 °F 57% 29.96 in 10.0 mi SSW 6.9 mph - N/A   Mostly Cloudy
8:55 PM 46.4 °F 42.4 °F 32.0 °F 57% 29.96 in 10.0 mi SW 8.1 mph - N/A   Mostly Cloudy
9:15 PM 46.4 °F 42.9 °F 32.0 °F 57% 29.97 in 10.0 mi SW 6.9 mph - N/A   Scattered Clouds
9:35 PM 46.4 °F 42.9 °F 32.0 °F 57% 29.97 in 10.0 mi WSW 6.9 mph - N/A   Mostly Cloudy
9:55 PM 46.4 °F 42.9 °F 32.0 °F 57% 29.98 in 10.0 mi WSW 6.9 mph - N/A   Scattered Clouds
10:15 PM 44.6 °F 41.4 °F 32.0 °F 61% 29.98 in 10.0 mi WSW 5.8 mph - N/A   Scattered Clouds
10:35 PM 44.6 °F 41.4 °F 32.0 °F 61% 29.98 in 10.0 mi WSW 5.8 mph - N/A   Scattered Clouds
10:55 PM 44.6 °F 42.2 °F 32.0 °F 61% 29.98 in 10.0 mi SW 4.6 mph - N/A   Scattered Clouds
11:15 PM 44.6 °F 43.1 °F 32.0 °F 61% 29.98 in 10.0 mi SW 3.5 mph - N/A   Clear
11:35 PM 42.8 °F 39.3 °F 32.0 °F 66% 29.98 in 10.0 mi SSW 5.8 mph - N/A   Clear